Regional Weather Roundup
Issued by NWS Cleveland, OH

Home | Current Version | Previous Version | Graphics & Text | Print | Product List | Glossary On
Versions: 1 2 3 4 5 6 7 8 9 10 11 12 13 14 15 16 17 18 19 20 21 22 23 24 25 26 27 28 29 30 31 32 33 34 35 36 37 38 39 40 41 42 43 44 45 46 47 48 49 50
000
ASUS41 KCLE 260500
RWRCLE
OHIO REGIONAL WEATHER ROUNDUP
NATIONAL WEATHER SERVICE WILMINGTON, OH
100 AM EDT TUE JUL 26 2016

NOTE: "FAIR" INDICATES FEW OR NO CLOUDS BELOW 12,000 FEET WITH NO
SIGNIFICANT WEATHER AND/OR OBSTRUCTIONS TO VISIBILITY.

OHZ001>008-015>018-024>027-034-035-043-044-260600-
   NORTHWEST OHIO

CITY           SKY/WX    TMP DP  RH WIND       PRES   REMARKS
DEFIANCE       FAIR      73  64  73 CALM      30.01R
FINDLAY        FAIR      72  65  78 W5        30.00R
TOLEDO EXPRESS FAIR      73  67  81 NW7       29.99S
TOLEDO EXEC    FAIR      74  68  81 NW8       30.00R
LIMA           FAIR      71  67  87 NW6       30.02R
$$

OHZ009>014-019>023-028>033-038-089-260600-
   NORTHEAST OHIO

CITY           SKY/WX    TMP DP  RH WIND       PRES   REMARKS
CLE-HOPKINS    MOCLDY    76  68  76 SW5       29.99R
CLE-LAKEFRONT  FAIR      79  73  82 W8        29.95S
CUY CO. ARPT   NOT AVBL
LORAIN-ELYRIA  FAIR      71  67  87 CALM      29.99R
ASHTABULA      FAIR      68  67  96 CALM      29.97R
AKRON-CANTON   FAIR      73  67  81 W5        30.00R
WOOSTER        NOT AVBL
MANSFIELD      FAIR      76  68  76 W5        30.02R
YOUNGSTOWN     MOCLDY    69  66  90 CALM      29.98S
$$

OHZ042-051>053-060>062-070>072-077>081-260600-
  SOUTHWEST OHIO

CITY           SKY/WX    TMP DP  RH WIND       PRES   REMARKS
CINC-COVINGTON MOCLDY    77  75  93 SW3       30.01S
CINC-LUNKEN    FAIR      76  76 100 CALM      30.00R
HAMILTON       FAIR      75  72  90 CALM      30.01R
DAYTON         NOT AVBL
WRIGHT-PAT AFB MOCLDY    79  71  75 NW6       30.00S
DAYTON GENERAL FAIR      79  70  74 N7        30.00S
WILMINGTON     FAIR      75  73  93 CALM      30.01S
$$

OHZ036-037-039>041-045>050-054>059-063>069-073>076-082>088-260600-
  CENTRAL AND SOUTHEAST OHIO

CITY           SKY/WX    TMP DP  RH WIND       PRES   REMARKS
COLUMBUS       MOCLDY    78  69  73 CALM      29.98S
OSU AIRPORT    FAIR      77  70  79 NW6       29.99S
BOLTON FIELD   NOT AVBL
RICKENBACK AFB NOT AVBL
NEWARK         FAIR      72  69  90 CALM      29.99S
MARION         FAIR      74  69  85 W5        30.01S
LANCASTER      FAIR      72  70  93 CALM      30.00S
ZANESVILLE     FAIR      75  69  81 CALM      29.99S
NEW PHILLY     FAIR      75  66  73 CALM      29.99S
$$




USA.gov is the U.S. government's official web portal to all federal, state and local government web resources and services.